Weather History for Las Vegas, NM

Change the Weather History Date:

Tuesday, November 6, 2012

  Actual Average Record
Temperature  
Mean Temperature 52 °F -  
Max Temperature 68 °F 56 °F 93 °F (2004)
Min Temperature 37 °F 31 °F 12 °F (1951)
Degree Days  
Heating Degree Days 12    
Growing Degree Days 2 (Base 50)    
Moisture  
Dew Point 19 °F    
Average Humidity 30    
Maximum Humidity 46    
Minimum Humidity 15    
Precipitation  
Precipitation 0.00 in - - ()
Sea Level Pressure  
Sea Level Pressure 30.13 in    
Wind  
Wind Speed 7 mph (NE)    
Max Wind Speed 15 mph    
Max Gust Speed 25 mph    
Visibility 10 miles    
Events      
Averages and records for this station are not official NWS values.
T = Trace of Precipitation, MM = Missing Value Source: NWS Daily Summary

Daily Weather History Graph

Daily Weather History Graph

Search for Another Location

Airport:

Trip Planner

Search our weather history database for the weather conditions in past years. The results will help you decide how hot, cold, wet, or windy it might be!

Date:

Astronomy

Nov. 06, 2012 Rise Set
Actual Time 6:27 AM MST 5:00 PM MST
Civil Twilight 6:01 AM MST 5:26 PM MST
Nautical Twilight 5:30 AM MST 5:57 PM MST
Astronomical Twilight 5:00 AM MST 6:27 PM MST
Moon 11:39 PM MST (11/6) 12:23 PM MST (11/6)
Length of Visible Light 11h 25m
Length of Day
10h 32m
Waning Gibbous, 52% of the Moon is Illuminated
Nov 6
Waning Gibbous
Nov 6
Last Quarter
Nov 13
New
Nov 20
First Quarter
Nov 28
Full

Hourly Weather History & Observations

Time (MST) Temp. Windchill Dew Point Humidity Pressure Visibility Wind Dir Wind Speed Gust Speed Precip Events Conditions
12:53 AM 39.9 °F 36.7 °F 17.1 °F 40% 30.09 in 10.0 mi NNE 4.6 mph - N/A   Clear
1:53 AM 42.1 °F 36.6 °F 17.1 °F 37% 30.07 in 10.0 mi North 9.2 mph - N/A   Clear
2:53 AM 37.9 °F 32.7 °F 17.1 °F 43% 30.09 in 10.0 mi North 6.9 mph - N/A   Clear
3:53 AM 39.9 °F 33.9 °F 17.1 °F 40% 30.09 in 10.0 mi North 9.2 mph - N/A   Clear
4:53 AM 42.1 °F 38.4 °F 17.1 °F 37% 30.11 in 10.0 mi NNE 5.8 mph - N/A   Clear
5:53 AM 39.0 °F 32.8 °F 16.0 °F 39% 30.17 in 10.0 mi NNE 9.2 mph - N/A   Clear
6:53 AM 37.0 °F 31.0 °F 16.0 °F 42% 30.20 in 10.0 mi NNE 8.1 mph - N/A   Clear
7:53 AM 46.0 °F 42.5 °F 17.1 °F 31% 30.20 in 10.0 mi North 6.9 mph - N/A   Clear
8:53 AM 55.0 °F - 19.0 °F 24% 30.18 in 10.0 mi North 4.6 mph - N/A   Clear
9:53 AM 62.1 °F - 19.9 °F 20% 30.17 in 10.0 mi NE 5.8 mph - N/A   Clear
10:53 AM 63.0 °F - 19.9 °F 19% 30.14 in 10.0 mi East 8.1 mph - N/A   Clear
11:53 AM 66.0 °F - 19.9 °F 17% 30.13 in 10.0 mi Variable 6.9 mph - N/A   Clear
12:53 PM 66.0 °F - 18.0 °F 16% 30.09 in 10.0 mi Variable 3.5 mph - N/A   Clear
1:53 PM 68.0 °F - 19.0 °F 15% 30.05 in 10.0 mi South 9.2 mph - N/A   Clear
2:53 PM 66.0 °F - 21.0 °F 18% 30.08 in 10.0 mi SE 15.0 mph 25.3 mph N/A   Clear
3:53 PM 64.0 °F - 19.9 °F 18% 30.08 in 10.0 mi SSE 13.8 mph - N/A   Clear
4:53 PM 57.9 °F - 19.9 °F 23% 30.11 in 10.0 mi SSE 12.7 mph - N/A   Clear
5:53 PM 53.1 °F - 19.9 °F 27% 30.16 in 10.0 mi SE 12.7 mph - N/A   Clear
6:53 PM 48.0 °F - 19.9 °F 33% 30.20 in 10.0 mi South 8.1 mph - N/A   Clear
7:53 PM 52.0 °F - 21.0 °F 30% 30.16 in 10.0 mi Calm Calm - N/A   Clear
8:53 PM 48.9 °F - 19.9 °F 32% 30.14 in 10.0 mi WNW 4.6 mph - N/A   Clear
9:53 PM 45.0 °F - 19.0 °F 36% 30.14 in 10.0 mi Calm Calm - N/A   Clear
10:53 PM 37.0 °F 33.3 °F 18.0 °F 46% 30.16 in 10.0 mi NNE 4.6 mph - N/A   Clear
11:53 PM 37.9 °F 33.5 °F 18.0 °F 45% 30.14 in 10.0 mi NE 5.8 mph - N/A   Clear